Location: Hannover
(52.3723°N, 9.7339°E)
Time: 02:04:43
(UTC+02:00)

ISS - Pass Details

Date: 24 March 2019
Orbit: 408 x 410 km, 51.6° (Epoch: 24 April)

Event Time Altitude Azimuth Distance (km) Brightness Sun altitude
Rises 19:27:14 0° 216° (SW) 2,328 0.3 -7.8°
Reaches altitude 10° 19:29:35 10° 200° (SSW) 1,470 -0.9 -8.2°
Maximum altitude 19:32:13 22° 147° (SSE) 945 -2.4 -8.6°
Enters shadow 19:34:21 13° 100° (E) 1,316 -1.9 -8.9°
